Regional Weather Roundup
Issued by NWS Grand Forks, ND

Home | Current Version | Previous Version | Graphics & Text | Print | Product List | Glossary On
Versions: 1 2 3 4 5 6 7 8 9 10 11 12 13 14 15 16 17 18 19 20 21 22 23 24 25 26 27 28 29 30 31 32 33 34 35 36 37 38 39 40 41 42 43 44 45 46 47 48 49 50
000
ASUS43 KFGF 242231
RWRFGF
PRAIRIE TO PINES  WEATHER ROUNDUP
NATIONAL WEATHER SERVICE EASTERN NORTH DAKOTA/GRAND FORKS ND
500 PM CDT TUE MAY 24 2016

 **SATELLITE DATA USED TO AUGMENT SKY COVER AT AUTOMATED STATIONS**
 *****  WEATHER ACROSS EASTERN NORTH DAKOTA  *****

CITY           SKY/WX    TMP DP  RH WIND       PRES   REMARKS
GRAND FORKS    FAIR      78  47  33 S5        29.86F
GRAND FRKS AFB FAIR      77  46  33 N5        29.88S
GRAND FRKS NWS   N/A     79 N/A N/A NE2         N/A
DEVILS LAKE    FAIR      78  43  28 S9        29.88F
FARGO          FAIR      84  43  23 NW8       29.84F
WAHPETON ARPT  FAIR      84  34  16 W12       29.82S
$$

 ***** WEATHER ACROSS CENTRAL AND WESTERN NORTH DAKOTA  *****

CITY           SKY/WX    TMP DP  RH WIND       PRES   REMARKS
BISMARCK       MOSUNNY   78  43  28 S9        29.87S
MINOT          FAIR      78  39  24 S12G18    29.87F
JAMESTOWN      NOT AVBL
MINOT AFB      FAIR      73  39  29 W10       29.86F
GARRISON         N/A     75  45  34 SW10      29.88F
WILLISTON      PTSUNNY   70  37  29 SW14      29.87F
DICKINSON      PTSUNNY   70  36  28 S6G17     29.86F
HETTINGER      PTSUNNY   72  42  34 SE10      29.88F
$$

 *****  OTHER AIRPORT OBSERVATIONS IN OUR AREA  *****

CITY           SKY/WX    TMP DP  RH WIND       PRES   REMARKS
WALHALLA       FAIR      73  50  43 SE6       29.87S
GRAFTON AIRPOR FAIR      75  52  43 CALM      29.89S
VALLEY CITY AR FAIR      77  48  36 CALM      29.90S
CANDO          FAIR      75  41  29 W12       29.89F
CAVALIER APRT  FAIR      73  48  40 SE3       29.87S
GWINNER        FAIR      82  48  30 N8        29.85S
ROLLA          FAIR      72  37  28 W15       29.90S
 ***** THE ABOVE OBSERVATIONS ARE NON NWS ARE NOT QUALITY
       CONTROLLED AND MAY MIS-REPORT RAIN FOR SNOW...
$$

  *****  WEATHER ACROSS NORTHERN MINNESOTA  *****

CITY           SKY/WX    TMP DP  RH WIND       PRES   REMARKS
FLAG ISLAND    FAIR      68  48  49 N9        29.89S
WARROAD        FAIR      72  54  53 E8        29.89S
ROSEAU         FAIR      75  52  43 W6        29.88S
HALLOCK        FAIR      77  48  36 CALM      29.86S
THF RVR FALLS  FAIR      75  48  38 W7        29.90S
BAUDETTE       FAIR      76  48  37 N13       29.88R
WASKISH        FAIR      75  54  46 SW10      29.88S
CROOKSTON      FAIR      77  48  36 CALM      29.88S
STEPHEN NDAWN    N/A     77  52  41 SE1         N/A
GREENBUSH NDAW   N/A     75  52  43 SW3         N/A
$$
  *****  WEATHER ACROSS CENTRAL AND WEST MINNESOTA  *****

CITY           SKY/WX    TMP DP  RH WIND       PRES   REMARKS
FOSSTON        FAIR      79  43  27 NW5       29.89F
BEMIDJI        FAIR      79  48  33 W7        29.88F
PARK RAPIDS    FAIR      81  50  33 NW9       29.87F
ELBOW LAKE     FAIR      83  45  26 SW16G23   29.84S
WADENA         FAIR      82  48  30 NW3       29.86S
DETROIT LAKES  FAIR      79  45  29 N3        29.88F
MOORHEAD       FAIR      82  45  26 N12       29.84F
FERGUS FALLS   FAIR      82  48  30 S6        29.79F
MORRIS MN      FAIR      82  46  28 SW9       29.83S
STAPLES        FAIR      81  45  28 CALM      29.86F
$$
  *****  WEATHER ELSEWHERE ACROSS MINNESOTA  *****

CITY           SKY/WX    TMP DP  RH WIND       PRES   REMARKS
DULUTH         FAIR      69  57  65 E12       29.91S
INTRNTL FALLS  FAIR      80  42  25 W12G21    29.85S
ELY            FAIR      70  55  60 CALM      29.89F
CLOQUET        PTSUNNY   72  55  56 E9        29.90R
WHEATON        FAIR      88  46  23 SW12      29.83F
BRAINERD       FAIR      80  50  34 S8        29.88F
HIBBING        FAIR      77  44  30 W8        29.88S
ALEXANDRIA     FAIR      80  47  31 SE10      29.87S
SAINT CLOUD    FAIR      78  58  49 S8        29.88S
MINNEAPOLIS    FAIR      84  48  28 VRB3      29.88S
$$

  *****  WEATHER ACROSS SOUTH DAKOTA  *****

CITY           SKY/WX    TMP DP  RH WIND       PRES   REMARKS
SIOUX FALLS    FAIR      83  51  33 S5        29.87S
BROOKINGS      FAIR      84  42  22 SW9       29.87R
WATERTOWN      FAIR      84  44  24 SW6       29.86F
HURON          SUNNY     83  45  26 SW7       29.83F
SISSETON         N/A     85  45  24 SW12      29.82S
ABERDEEN       SUNNY     85  50  29 W7        29.84S
MITCHELL       SUNNY     85  46  25 MISG      29.84F
PIERRE         SUNNY     80  40  23 S5        29.82F
MOBRIDGE       SUNNY     79  47  32 CALM      29.84F
RAPID CITY     PTSUNNY   69  44  40 E8        29.84F
$$

  *****  SOME WEATHER IN NEARBY STATES *****

CITY           SKY/WX    TMP DP  RH WIND       PRES   REMARKS
GLASGOW MT     CLOUDY    61  42  49 W13       29.87S
GREAT FALLS MT MOSUNNY   60  36  40 VRB3      29.87F
CHEYENNE WY    LGT RAIN  60  47  61 SE15G22   29.90F
SCOTTSBLUFF NE MOSUNNY   77  46  33 S21G29    29.81F
OMAHA NE       FAIR      81  59  47 SE7       29.88F
DES MOINES IA  PTSUNNY   83  60  45 SW7       29.89F
DAVENPORT IA   FAIR      87  55  33 SW15G21   29.91F
CHICAGO IL     PTSUNNY   86  48  26 S20G25    29.92F
EAU CLAIRE WI  PTSUNNY   81  55  40 NW7       29.89R
LA CROSSE WI   FAIR      82  59  45 SW8       29.91R
$$

  *****  SOME NATIONAL WEATHER *****

CITY           SKY/WX    TMP DP  RH WIND       PRES   REMARKS
LA GUARDIA NY  CLOUDY    70  55  59 N6        29.91S
RALEIGH NC     FAIR      78  55  44 SW9       30.09R
ATLANTA GA     FAIR      83  51  33 SW9       30.12R
NEW ORLEANS LA FAIR      86  72  62 S15       30.06F HX  92
OKLAHOMA CITY  PTSUNNY   85  71  63 S18G25    29.86F HX  90
ALBUQUERQUE NM MOSUNNY   83  15   8 SW23G38   29.93F
SALT LAKE CITY LGT RAIN  64  40  41 N24       29.83R
LOS ANGELES CA MOSUNNY   65  53  65 W14G21    30.02S
BOISE ID       MOSUNNY   71  32  23 NW9G20    29.82F
SEATTLE WA     CLOUDY    62  48  60 SW5       30.02S
$$

*** WEATHER ACROSS MANITOBA...SASKATCHEWAN AND ONTARIO ***
                ***ONTARIO***

CITY           SKY/WX    TMP DP  RH WIND       PRES   REMARKS
GERALDTON      PTSUNNY   57  41  54 NE12      30.03R
THUNDER BAY    CLOUDY    63  55  77 E9        29.97S
SIOUX LOOKOUT  TSTM      54  52  94 VRB2      30.01R
TORONTO        MOSUNNY   84  45  24 W12       29.93S
BIG TROUT LK   MOSUNNY   50  37  62 E8        30.09F
PICKLE LAKE    PTSUNNY   55  41  58 SE10G18   30.01S
DRYDEN         LGT RAIN  57  52  82 N10       29.92F
KENORA         PTSUNNY   68  48  49 NE9       29.91S
$$
                *** MANITOBA***

CITY           SKY/WX    TMP DP  RH WIND       PRES   REMARKS
BRANDON        PTSUNNY   72  45  37 S13G20    29.86R
DAUPHIN        CLOUDY    57  54  88 N10       29.90S THUNDER
ISLAND LAKE    MOSUNNY   54  41  62 E8G17     30.02F
PILOT MOUND      N/A     75  41  29 SW16        N/A
THE PAS        CLOUDY    54  41  62 SE7       29.97F
THOMPSON       PTSUNNY   52  36  54 VRB6      30.03F
WINNIPEG       PTSUNNY   73  46  38 S14       29.88R
LYNN LAKE      MOSUNNY   57  37  47 S8        29.97S
CHURCHILL      PTSUNNY   36  23  60 NE10      30.17R
GILLAM         PTSUNNY   48  27  43 SE6       30.09F
$$
                ***SASKATCHEWAN***

CITY           SKY/WX    TMP DP  RH WIND       PRES   REMARKS
ESTEVAN        PTSUNNY   70  39  32 SW15G21   29.85S
KINDERSLEY     CLOUDY    52  46  82 NE12G20   29.86S
LLOYDMINSTER   PTSUNNY   59  46  63 SE7       29.88S
PRINCE ALBERT  DRIZZLE   54  48  82 E7        29.92S
REGINA         MOSUNNY   59  48  67 SW7       29.84S
YORKTON        CLOUDY    68  43  40 S12G20    29.84S
N. BATTLEFORD  CLOUDY    54  46  76 E12       29.91F
LA RONGE       MOSUNNY   59  45  58 SE6       29.94S
SASKATOON      PTSUNNY   61  48  63 NE16      29.86
SWIFT CURRENT  CLOUDY    55  45  67 NW8       29.81R
$$
NOTE: THESE ARE AUTOMATED STATIONS WITH LIMITED QUALITY CONTROL
      "FAIR" INDICATES FEW OR NO CLOUDS BELOW 12,000 FEET WITH NO
      SIGNIFICANT WEATHER AND/OR OBSTRUCTIONS TO VISIBILITY.
      SKY/WX - SKY CONDITION AND SIGNIFICANT WEATHER.
      TMP - AIR TEMPERATURE.    DP   - DEWPOINT TEMPERATURE.
      RH  - RELATIVE HUMIDITY.  PRES - PRESSURE.
      HX  - HEAT INDEX.         WCI  - WIND CHILL INDEX.
$




USA.gov is the U.S. government's official web portal to all federal, state and local government web resources and services.